Overview Statistics Trail Chart Weather Telemetry Raw packets
 

This is the latest recevied weather packets stored in our database for station/object K5OLV. If no packets are shown the sender has not sent any weather packets the latest 10 day(s).

<< 108 109 110 111 112 113 114 >>
Time Temp. Humidity Pressure Rain* Wind** Luminosity Snow
1787793444 20° C 98% 1014.1 hPa 0 mm - 0 W/m² -
1787793140 20° C 98% 1014.2 hPa 0 mm - 0 W/m² -
1787792835 20° C 98% 1014 hPa 0 mm - 0 W/m² -
1787792535 20° C 98% 1014 hPa 0 mm - 0 W/m² -
1787792232 20° C 98% 1014 hPa 0 mm - 0 W/m² -
1787791931 20° C 98% 1014 hPa 0 mm - 0 W/m² -
1787791625 20° C 98% 1014 hPa 0 mm - 0 W/m² -
1787791321 20° C 98% 1014 hPa 0 mm - 0 W/m² -
1787791015 20.56° C 98% 1013.8 hPa 0 mm - 0 W/m² -
1787790712 20.56° C 98% 1013.6 hPa 0 mm - 0 W/m² -
1787790406 20.56° C 98% 1013.4 hPa 0 mm - 0 W/m² -
1787790101 20.56° C 97% 1013.3 hPa 0 mm - 0 W/m² -
1787789797 20.56° C 97% 1013.1 hPa 0 mm - 0 W/m² -
1787789492 20.56° C 97% 1013.1 hPa 0 mm - 0 W/m² -
1787789190 20.56° C 97% 1012.8 hPa 0 mm - 1 W/m² -
1787788885 20.56° C 97% 1012.9 hPa 0 mm - 2 W/m² -
1787788583 20.56° C 97% 1012.8 hPa 0 mm - 4 W/m² -
1787788278 20.56° C 97% 1012.9 hPa 0 mm - 7 W/m² -
1787787974 20.56° C 97% 1013 hPa 0 mm - 8 W/m² -
1787787674 20.56° C 96% 1013 hPa 1.27 mm - 8 W/m² -
1787787373 20.56° C 96% 1013.1 hPa 3.05 mm - 9 W/m² -
1787787072 21.11° C 95% 1013.2 hPa 1.78 mm - 7 W/m² -
1787786772 21.67° C 93% 1013.5 hPa 1.78 mm - 6 W/m² -
1787786467 21.67° C 91% 1013.4 hPa 1.78 mm - 6 W/m² -
1787786163 22.22° C 88% 1013.5 hPa 0 mm - 6 W/m² -

* Rain latest hour (hover to see other rain measurements)
** Current wind speed in m/s (hover to see current wind gust speed)